This is the latest recevied weather packets stored in our database for station/object KC5TIL. If no packets are shown the sender has not sent any weather packets the latest 10 day(s).
| Time | Temp. | Humidity | Pressure | Rain* | Wind** | Luminosity | Snow |
|---|---|---|---|---|---|---|---|
| 1778199136 | 20° C | 63% | 1016.4 hPa | 0 mm | - | 50 W/m² | - |
| 1778198832 | 20° C | 63% | 1016.3 hPa | 0 mm | - | 50 W/m² | - |
| 1778198529 | 20° C | 64% | 1016.2 hPa | 0 mm | - | 45 W/m² | - |
| 1778198225 | 20° C | 63% | 1016.3 hPa | 0 mm | - | 58 W/m² | - |
| 1778197923 | 20.56° C | 64% | 1016.2 hPa | 0 mm | - | 63 W/m² | - |
| 1778197620 | 20.56° C | 62% | 1016.3 hPa | 0 mm | - | 69 W/m² | - |
| 1778197317 | 20.56° C | 61% | 1016.2 hPa | 0 mm | - | 80 W/m² | - |
| 1778197013 | 20.56° C | 60% | 1016.3 hPa | 0 mm | - | 80 W/m² | - |
| 1778196712 | 20.56° C | 59% | 1016.4 hPa | 0 mm | - | 101 W/m² | - |
| 1778196408 | 20.56° C | 60% | 1016.1 hPa | 0 mm | - | 116 W/m² | - |
| 1778196105 | 20.56° C | 60% | 1016.4 hPa | 0 mm | - | 120 W/m² | - |
| 1778195802 | 20.56° C | 60% | 1016.3 hPa | 0 mm | - | 135 W/m² | - |
| 1778195499 | 20.56° C | 61% | 1016.3 hPa | 0 mm | - | 122 W/m² | - |
| 1778195195 | 20.56° C | 61% | 1016.3 hPa | 0 mm | - | 95 W/m² | - |
| 1778194892 | 20.56° C | 61% | 1016.4 hPa | 0 mm | - | 100 W/m² | - |
| 1778194586 | 20.56° C | 60% | 1016.5 hPa | 0 mm | - | 115 W/m² | - |
| 1778194283 | 20.56° C | 62% | 1016.3 hPa | 0 mm | - | 124 W/m² | - |
| 1778193979 | 21.11° C | 62% | 1016.5 hPa | 0 mm | - | 112 W/m² | - |
| 1778193676 | 21.11° C | 60% | 1016.5 hPa | 0 mm | - | 102 W/m² | - |
| 1778193372 | 21.67° C | 59% | 1016.4 hPa | 0 mm | - | 108 W/m² | - |
| 1778193069 | 21.67° C | 57% | 1016.5 hPa | 0 mm | - | 122 W/m² | - |
| 1778192766 | 21.67° C | 56% | 1016.6 hPa | 0 mm | - | 136 W/m² | - |
| 1778192462 | 21.67° C | 56% | 1016.6 hPa | 0 mm | - | 122 W/m² | - |
| 1778192158 | 21.67° C | 57% | 1016.6 hPa | 0 mm | - | 126 W/m² | - |
| 1778191855 | 21.67° C | 52% | 1016.5 hPa | 0 mm | - | 133 W/m² | - |
* Rain latest hour (hover to see other rain measurements)
** Current wind speed in m/s (hover to see current wind gust speed)